Regional Weather Roundup
Issued by NWS

Home | Current Version | Previous Version | Graphics & Text | Print | Product List | Glossary On
Versions: 1 2 3 4 5 6 7 8 9 10 11 12 13 14 15 16 17 18 19 20 21 22 23 24 25 26 27 28 29 30 31 32 33 34 35 36 37 38 39 40 41 42 43 44 45 46 47 48 49 50
394
ASUS44 KMEG 151710
RWRTN
TENNESSEE HOURLY STATE WEATHER ROUNDUP
NATIONAL WEATHER SERVICE MEMPHIS TN
1100 AM CST FRI DEC 15 2017

TNZ002-004-019-021-049-052-054-088>092-151800-
WEST TENNESSEE

CITY           SKY/WX    TMP DP  RH WIND       PRES   REMARKS
MEMPHIS INTL   CLOUDY    42  27  55 VRB5      30.25S
NWS MEMPHIS      N/A     39 N/A N/A MISG        N/A
JACKSON        MOSUNNY   39  24  55 N5        30.23F
DYERSBURG      SUNNY     40  26  57 SW7       30.21F
SOMERVILLE     SUNNY     39  25  56 CALM      30.22F
COVINGTON      SUNNY     41  27  56 VRB5      30.23F
UNION CITY     SUNNY     39  23  52 VRB5      30.20F
BOLIVAR        SUNNY     39  23  52 NW10      30.22F WCI  32
PARIS          SUNNY     37  23  56 CALM      30.18F
HUNTINGDON     SUNNY     39  25  56 VRB5G12   30.19F
LEXINGTON      MOSUNNY   37  23  56 NW9G23    30.22S WCI  31
SELMER         SUNNY     37  23  56 VRB7G16   30.21F WCI  32
SAVANNAH       MOSUNNY   37  25  60 N13       30.22F WCI  29
$$

TNZ008-025-027-028-033-062-065-066-151800-
NORTH MIDDLE TENNESSEE

CITY           SKY/WX    TMP DP  RH WIND       PRES   REMARKS
NASHVILLE      CLOUDY    35  21  56 NW9       30.20S WCI  28
PORTLAND       CLOUDY    32  21  64 NW9G15    30.16F WCI  24
CLARKSVILLE    PTSUNNY   37  20  50 NW14      30.19S WCI  28
SMYRNA         CLOUDY    35  21  56 NW10      30.21R WCI  27
COOKEVILLE     CLOUDY    32  19  59 W3        30.15R
GALLATIN       CLOUDY    36  21  55 VRB6G14   30.21S WCI  31
CROSSVILLE     CLOUDY    27  19  72 W8        30.10R WCI  19
$$

TNZ061-075-076-078-094-096-097-151800-
SOUTH MIDDLE TENNESSEE

CITY           SKY/WX    TMP DP  RH WIND       PRES   REMARKS
FAYETTEVILLE   CLOUDY    32  23  69 NW8       30.17F WCI  25
TULLAHOMA      CLOUDY    32  21  64 NW9       30.16S WCI  24
WINCHESTER       N/A     30  21  69 N9        30.17S WCI  22
MCMINNVILLE    CLOUDY    32  19  59 NW7       30.16F WCI  26
COLUMBIA       CLOUDY    34  21  60 W6        30.18F WCI  29
SHELBYVILLE    CLOUDY    34  23  64 W7        30.19S WCI  28
$$

TNZ017-018-042-046-047-151800-
NORTHEAST TENNESSEE

CITY           SKY/WX    TMP DP  RH WIND       PRES   REMARKS
TRI CITIES     CLOUDY    32  30  92 SW6       30.02F WCI  26
ELIZABETHTON   CLOUDY    34  27  75 W5        30.02S WCI  30
$$

TNZ012-013-036-069-073-074-151800-
CENTRAL EAST TENNESSEE

CITY           SKY/WX    TMP DP  RH WIND       PRES   REMARKS
KNOXVILLE      CLOUDY    34  29  82 SW12      30.10R WCI  25
OAK RIDGE      CLOUDY    37  23  56 W7        30.12R WCI  32
DOWNTOWN KNOXV CLOUDY    37  27  65 W6        30.11R WCI  33
GATLINBURG     CLOUDY    34  27  75 W8        30.09R WCI  27
MORRISTOWN     CLOUDY    34  23  64 W10       30.06R WCI  26
JACKSBORO      CLOUDY    34  21  60 VRB6G12   30.13S WCI  29
$$

TNZ083-085-099-151800-
SOUTHEAST TENNESSEE

CITY           SKY/WX    TMP DP  RH WIND       PRES   REMARKS
CHATTANOOGA    CLOUDY    35  20  54 NW10      30.16S WCI  27
DAYTON         CLOUDY    34  25  69 NW7G14    30.15R WCI  28
$$

SKY/WX REPORTED AS FAIR MEANS FEW OR NO CLOUDS BELOW
12 THOUSAND FEET.





USA.gov is the U.S. government's official web portal to all federal, state and local government web resources and services.